Regional Weather Roundup
Issued by NWS Northern Indiana

Home | Current Version | Previous Version | Graphics & Text | Print | Product List | Glossary On
Versions: 1 2 3 4 5 6 7 8 9 10 11 12 13 14 15 16 17 18 19 20 21 22 23 24 25 26 27 28 29 30 31 32 33 34 35 36 37 38 39 40 41 42 43 44 45 46 47 48 49 50
000
ASUS43 KIWX 231410
RWRIWX

KIWX WEATHER ROUNDUP
NATIONAL WEATHER SERVICE NORTHERN INDIANA
1000 AM EDT WED APR 23 2014

NOTE: "FAIR" INDICATES FEW OR NO CLOUDS BELOW 12,000 FEET WITH NO
SIGNIFICANT WEATHER AND/OR OBSTRUCTIONS TO VISIBILITY.

* THESE STATIONS ARE NOT UNDER NWS QUALITY CONTROL. THEY ALSO MAY NOT
  REPORT WEATHER SUCH AS PRECIPITATION OR FOG.

INZ001>027-231500-
NORTHERN INDIANA

CITY           SKY/WX    TMP DP  RH WIND       PRES   REMARKS
GARY*          MOSUNNY   41  30  65 NE14      30.18S
VALPARAISO     SUNNY     41  28  60 N9        30.16S
MICHIGAN CITY* MOSUNNY   39  30  70 N10G16    30.17S
LAPORTE*       SUNNY     40  29  65 N7        30.15S
SOUTH BEND     SUNNY     42  29  59 N12       30.15R
ELKHART*       SUNNY     39  27  60 N7        30.14R
GOSHEN         SUNNY     41  29  62 NE10      30.12S
MONTICELLO*    SUNNY     39  29  67 NE9       30.14S
LOGANSPORT*    SUNNY     41  28  60 N8        30.14F
ROCHESTER*     SUNNY     43  30  61 NE7       30.14R
WARSAW*        SUNNY     39  30  70 N7        30.12S
ANGOLA*        SUNNY     37  28  70 N8        30.10S
FORT WAYNE     MOSUNNY   42  29  59 N10       30.11S
HUNTINGTON*    FAIR      40  30  69 N7        30.12R
PERU/GRISSOM   SUNNY     41  33  73 N7        30.13R
MARION*        SUNNY     39  28  64 N6        30.13R

$$
INZ028>050-231500-
CENTRAL INDIANA

CITY           SKY/WX    TMP DP  RH WIND       PRES   REMARKS
LAFAYETTE      SUNNY     41  29  62 NE9       30.15R
KOKOMO*          N/A    N/A N/A N/A MISG        N/A
MUNCIE*        SUNNY     41  30  65 VRB5      30.12R
INDIANAPOLIS   SUNNY     42  28  57 N10       30.12R

$$
MIZ043>046-050>051-056>058-064>065-071>073-077>080-231500-
SOUTHWEST LOWER MICHIGAN

CITY           SKY/WX    TMP DP  RH WIND       PRES   REMARKS
BATTLE CREEK   SUNNY     40  27  59 NE8       30.12S
BENTON HARBOR  SUNNY     38  31  76 N8        30.16R
COLDWATER*     SUNNY     39  29  67 N9        30.12R
HILLSDALE*     SUNNY     40  28  62 N12       30.08S
HOLLAND        SUNNY     42  28  57 N8        30.17R
GRAND RAPIDS   MOSUNNY   42  26  53 N9        30.14R
KALAMAZOO      SUNNY     41  27  57 N10       30.14R
STURGIS*       SUNNY     37  28  70 N9        30.12R
THREE RIVERS*  FAIR      41  28  61 N7        30.15R

$$
OHZ001>008-015>018-024>025-231500-
NORTHWEST OHIO

CITY           SKY/WX    TMP DP  RH WIND       PRES   REMARKS
WAUSEON*       FAIR      41  30  65 N14       30.09S
DEFIANCE       SUNNY     43  29  57 N9        30.10S
FINDLAY        PTSUNNY   42  30  62 N8        30.08R
TOLEDO EXPRESS PTSUNNY   41  28  60 N14G22    30.09R
TOLEDO METCALF CLOUDY    41  28  60 N10       30.10R
LIMA           SUNNY     41  31  67 N9        30.08R

$$
&&



USA.gov is the U.S. government's official web portal to all federal, state and local government web resources and services.